RH
96 96 96 98 96 94 97 97 99 94 94 100 98 98 97 88 90 83 82 75 80 75 77 84 91 92 54 20 12 12 13 12 12 14 15 15 14 14
96 96 97 97 98 95 95 96 97 96 89 92 100 97 80 70 74 84 96 86 97 89 85 91 94 93 54 20 12 13 11 12 13 14 15 17 16 16
97 96 95 96 96 97 97 97 96 96 93 81 81 85 81 89 81 82 84 93 98 97 97 95 98 83 31 23 24 23 12 10 15 16 16 17 18 16
97 96 95 97 96 97 97 97 97 96 98 94 90 84 90 92 92 91 99 98 96 97 95 97 92 68 52 48 59 39 19 14 18 19 18 18 19 20
97 97 97 97 97 97 98 97 96 97 97 96 93 96 97 96 93 96 98 97 98 96 93 97 96 83 76 79 44 23 16 21 23 23 20 19 20 21
97 97 97 96 98 98 98 98 98 98 97 96 98 97 98 96 97 96 97 97 97 97 97 98 96 90 89 64 28 16 18 21 26 27 24 22 23 24
44 43 63 86 97 97 97 97 97 96 98 98 100 91 100 99 100 97 98 95 86 96 95 94 89 76 65 60 25 15 16 19 26 28 28 31 25 25
4 5 10 14 22 31 45 80 97 99 98 96 95 98 100 95 98 99 98 96 98 97 89 75 76 82 73 59 26 16 16 17 36 43 46 30 26 18
8 7 6 5 4 8 26 43 46 53 87 97 97 96 96 99 98 100 98 98 98 98 99 94 83 56 35 20 19 19 27 26 55 58 41 31 28 18
8 9 10 9 8 7 6 9 19 35 58 54 57 84 90 97 98 97 97 98 97 98 98 98 94 93 64 39 31 74 62 40 39 39 38 42 38 18
10 10 9 9 12 11 8 8 8 10 21 39 48 64 66 84 75 89 96 100 99 100 97 99 100 97 97 98 90 37 20 23 34 39 47 53 36 18
7 8 8 9 10 13 13 10 8 9 10 14 23 41 70 77 98 100 87 100 99 100 100 99 99 98 98 90 31 19 28 36 44 55 70 60 26 19
4 5 5 5 5 5 8 13 10 8 9 11 12 18 25 47 69 87 99 100 98 95 100 98 100 97 99 68 30 33 42 55 73 76 66 47 25 20
2 2 2 3 3 3 4 4 6 11 9 12 12 13 14 25 49 61 65 77 90 76 72 78 87 85 58 54 50 50 55 79 80 72 56 44 25 23
9 13 13 11 8 8 6 6 7 6 9 10 11 16 16 21 39 51 62 66 64 55 51 45 49 49 47 65 82 89 87 84 80 68 54 36 28 28
13 14 19 15 11 15 11 9 14 14 15 12 21 12 15 25 42 42 56 77 96 91 84 77 72 74 84 85 77 70 75 84 76 71 52 45 32 44
31 25 16 18 23 24 22 15 13 13 19 30 95 100 82 51 93 97 71 98 96 100 100 99 99 94 87 78 76 84 91 85 84 77 66 47 43 65
14 14 40 46 43 36 32 26 20 17 18 24 38 96 97 88 68 98 100 100 100 100 100 98 94 96 89 87 91 95 96 94 95 88 70 52 57 78
49 76 80 67 53 46 38 31 25 19 19 21 35 55 99 100 100 98 98 100 100 100 100 98 97 100 100 100 100 96 95 90 95 95 67 61 68 86
100 100 90 69 58 49 38 28 27 26 32 29 30 36 50 84 92 78 62 86 100 100 100 100 100 100 100 98 87 90 88 89 100 88 89 80 80 89
100 100 82 63 50 34 22 16 20 55 100 62 50 21 97 96 100 94 96 84 96 100 98 100 100 100 94 92 100 99 100 100 100 97 91 88 91 94
100 100 79 62 42 25 13 13 22 99 100 100 100 85 31 81 100 100 100 100 86 92 100 100 100 100 100 100 100 100 99 98 100 98 92 98 100 100
94 100 83 62 39 16 12 17 75 100 99 100 100 100 100 68 99 66 76 100 100 100 100 100 100 100 100 100 100 100 99 94 100 100 99 100 100 100
Wind_Speed
51 49 46 42 41 42 43 49 49 39 43 45 45 42 47 50 47 49 50 53 53 47 43 42 42 40 38 36 34 33 32 32 31 34 33 37 39 41
48 50 50 49 51 50 50 55 52 54 53 51 50 47 48 46 46 47 50 49 51 45 43 43 43 43 41 38 37 38 37 35 34 35 36 37 39 42
47 50 54 57 53 56 51 48 49 54 54 53 53 54 51 47 47 47 47 49 49 50 48 46 44 42 42 40 37 39 39 40 38 38 38 38 40 43
44 46 45 48 50 49 51 57 57 56 54 54 55 57 51 50 45 47 48 42 50 54 51 46 44 45 42 39 35 40 42 40 40 39 38 39 41 44
54 48 50 54 52 55 50 54 53 54 56 56 48 49 50 49 43 46 47 52 53 50 52 53 45 42 42 39 42 43 42 41 40 41 39 40 41 43
37 39 40 36 36 45 49 45 46 44 40 43 44 43 42 39 36 41 41 42 43 48 45 45 43 46 40 42 44 43 41 42 41 42 40 40 42 44
50 52 52 50 49 45 48 50 50 48 40 41 38 46 47 44 42 45 43 40 37 36 36 38 38 39 42 46 48 44 44 43 43 43 39 43 43 43
53 55 55 58 58 56 57 54 53 60 55 47 49 41 43 47 51 49 45 41 44 41 42 44 47 50 52 52 49 46 46 44 42 41 44 44 41 40
64 63 62 63 62 63 61 60 60 61 61 56 57 50 54 51 44 45 52 53 44 44 46 50 53 55 52 48 48 46 46 47 49 45 46 41 39 38
74 76 75 73 72 71 68 67 66 63 61 62 64 61 60 58 53 51 53 52 44 44 49 57 53 54 52 47 45 49 47 47 44 43 43 42 39 36
86 87 87 87 84 82 79 75 72 69 69 67 66 64 63 61 60 63 51 47 52 54 49 45 47 43 42 45 44 46 46 44 43 44 44 48 38 35
100 101 98 96 93 91 87 84 81 78 76 73 71 69 66 64 59 60 60 62 53 51 54 52 52 54 45 35 38 41 40 41 43 46 52 43 36 35
116 115 116 114 106 98 93 91 87 85 83 81 77 74 72 68 64 65 62 60 52 52 57 60 50 43 36 37 39 40 40 44 51 49 42 36 36 34
110 106 100 91 90 88 85 91 92 90 86 82 82 79 77 73 71 69 67 69 70 66 65 66 59 49 41 41 45 45 49 49 45 40 37 35 36 33
85 77 73 70 73 78 86 90 91 92 91 86 81 79 77 75 77 75 72 68 63 62 61 58 54 51 46 51 49 47 44 44 39 36 35 33 35 31
73 69 66 63 66 73 84 90 87 86 86 85 80 82 79 75 74 77 74 71 66 61 59 55 53 56 55 49 44 41 40 36 36 36 34 33 33 29
62 59 58 58 60 65 70 78 84 81 80 78 65 52 55 73 70 72 71 69 67 55 57 55 53 50 47 41 40 38 36 36 35 35 36 33 31 27
50 48 50 52 52 53 56 58 65 71 69 67 63 56 53 60 69 67 61 58 58 57 54 51 48 44 42 41 40 37 36 35 35 36 35 32 30 26
41 40 41 41 42 43 44 46 46 50 55 58 53 69 58 52 44 53 62 58 54 53 50 47 44 42 42 42 40 38 36 35 36 35 33 32 32 29
34 33 32 34 36 38 39 40 40 37 36 41 48 43 50 46 45 43 51 52 47 47 46 43 42 42 43 42 38 38 36 34 37 34 32 33 32 31
30 29 29 30 31 32 33 35 35 29 30 33 35 49 51 40 36 49 47 41 44 43 40 41 43 43 42 38 37 35 34 35 38 36 34 33 32 31
28 28 27 27 26 26 27 30 33 38 35 36 39 39 49 54 37 36 44 47 44 44 44 41 40 40 36 36 35 33 31 31 37 38 35 32 32 31
28 27 26 24 22 23 26 29 37 39 36 42 43 42 44 46 44 38 38 43 44 50 52 41 40 39 34 33 31 29 29 31 34 36 33 33 34 32
Wind_Direction
254 258 258 253 249 248 255 261 261 262 258 257 256 257 273 272 269 273 270 266 266 270 263 267 273 272 254 254 257 264 275 282 293 299 310 313 313 319
252 256 257 252 259 252 247 256 265 264 266 254 252 266 276 271 272 271 269 270 260 258 261 263 271 266 250 255 260 266 271 280 286 293 299 306 313 313
253 259 255 256 253 252 254 259 266 266 264 255 255 267 277 266 265 268 270 270 257 258 264 267 259 244 250 257 256 271 276 278 284 289 297 306 307 309
256 261 265 254 245 251 260 256 261 262 258 258 263 271 265 260 265 266 256 256 268 261 263 253 242 242 251 253 261 269 276 276 281 288 295 301 305 308
257 253 253 254 252 258 254 259 260 258 258 260 259 258 256 258 261 264 253 259 265 251 255 248 242 244 236 255 263 272 274 277 281 289 293 298 302 305
254 250 250 243 250 255 250 251 252 252 252 248 252 257 256 256 257 260 263 260 258 256 256 246 248 245 248 255 265 269 273 277 281 286 290 296 299 303
273 275 275 269 262 255 246 246 247 248 249 246 245 253 253 255 255 262 258 252 257 258 255 250 257 258 261 269 270 271 275 279 283 287 292 294 296 300
270 269 267 265 265 264 266 264 253 248 247 238 240 250 249 251 254 264 256 243 246 256 265 263 261 261 264 269 266 268 272 275 278 285 290 289 293 296
272 269 266 264 264 264 261 258 255 255 255 253 242 244 244 250 255 250 253 240 256 260 266 263 264 267 268 267 266 267 268 271 281 282 286 288 292 294
273 273 271 267 263 259 257 257 257 256 252 251 258 256 258 257 252 254 263 257 254 273 263 274 268 265 261 267 268 273 277 273 275 283 287 289 290 289
275 272 268 267 265 262 259 256 254 253 253 253 251 251 250 250 255 257 247 255 260 257 268 256 262 260 266 257 262 265 266 270 277 284 288 289 284 287
272 271 269 266 262 259 257 254 252 251 250 249 249 248 248 249 248 246 250 255 259 250 260 250 254 262 271 273 268 266 270 276 282 285 288 283 282 285
271 270 269 269 265 260 256 254 251 248 248 247 248 248 247 248 246 247 245 242 244 246 252 256 264 260 266 269 270 269 273 276 281 284 280 277 278 281
276 274 270 267 264 261 254 253 250 249 247 245 245 246 247 247 247 247 245 245 252 259 259 265 271 272 268 267 268 268 273 278 280 273 273 274 274 278
277 272 268 262 253 246 239 239 239 240 241 244 245 244 244 245 246 246 248 248 250 252 255 258 262 264 261 265 271 274 275 275 268 267 270 272 275 275
273 268 263 257 250 246 243 242 242 237 234 233 236 238 242 242 248 247 246 247 249 250 253 255 256 260 263 266 268 271 272 265 263 266 266 269 271 266
270 266 258 250 246 248 248 246 247 246 241 237 227 221 236 237 228 239 244 246 248 245 249 251 255 256 258 257 259 265 261 258 259 261 264 266 262 261
267 256 250 247 248 249 250 249 248 249 248 245 236 224 229 239 241 237 235 232 233 239 245 246 247 248 251 250 254 254 253 252 256 258 261 261 257 256
259 252 249 247 245 245 245 244 245 245 246 247 244 234 226 227 226 233 235 236 236 240 242 242 242 243 244 247 247 248 247 251 254 252 255 259 254 253
255 250 245 242 242 242 242 241 238 233 231 233 237 233 228 229 231 228 239 233 232 233 232 233 236 236 239 240 243 245 246 251 250 245 250 255 252 252
251 245 239 239 240 239 239 233 227 215 219 217 221 229 212 211 226 217 225 223 225 226 228 231 231 232 236 241 243 245 246 248 244 241 243 251 251 251
244 239 237 236 236 233 228 219 208 198 209 208 205 204 222 229 225 222 223 212 213 221 220 226 225 230 236 238 240 240 241 249 249 241 241 247 248 248
236 232 233 232 227 222 214 205 191 194 201 205 201 211 213 211 216 224 216 214 218 223 220 222 219 229 231 235 236 238 242 246 250 241 245 245 245 247